Cartersville, GA

2:03 PM EDT on August 29, 2016 (GMT -0400)
Cartersville

Weather History for KVPC - January, 2013

Change the Weather History Date:

Tuesday, January 8, 2013

  Actual Average Record
Temperature  
Mean Temperature 46 °F 41 °F  
Max Temperature 53 °F 51 °F 69 °F (2008)
Min Temperature 39 °F 30 °F 8 °F (2015)
Degree Days  
Heating Degree Days 19 24  
Month to date heating degree days 192  
Since 1 July heating degree days 1494  
Moisture  
Dew Point 36 °F    
Average Humidity 67    
Maximum Humidity 82    
Minimum Humidity 56    
Precipitation  
Precipitation 0.00 in 0.12 in 1.84 in (1967)
Month to date precipitation 0.94  
Year to date precipitation 0.94  
Sea Level Pressure  
Sea Level Pressure 30.34 in    
Wind  
Wind Speed 4 mph (East)    
Max Wind Speed 10 mph    
Max Gust Speed 20 mph    
Visibility 10 miles    
Events      
T = Trace of Precipitation, MM = Missing Value Source: NWS Daily Summary

Daily Weather History Graph

Daily Weather History Graph

Search for Another Location

Airport or City:

Trip Planner

Search our weather history database for the weather conditions in past years. The results will help you decide how hot, cold, wet, or windy it might be!

Date:

Astronomy

Jan. 08, 2013 Rise Set
Actual Time 7:45 AM EST 5:46 PM EST
Civil Twilight 7:18 AM EST 6:14 PM EST
Nautical Twilight 6:47 AM EST 6:45 PM EST
Astronomical Twilight 6:17 AM EST 7:15 PM EST
Moon 4:18 AM EST (1/8) 2:48 PM EST (1/8)
Length of Visible Light 10h 56m
Length of Day
10h 01m
Waning Crescent, 14% of the Moon is Illuminated
Jan 8
Waning Crescent
Jan 11
New
Jan 18
First Quarter
Jan 26
Full
Feb 3
Last Quarter

Hourly Weather History & Observations

Time (EST) Temp. Windchill Dew Point Humidity Pressure Visibility Wind Dir Wind Speed Gust Speed Precip Events Conditions
12:53 AM 42.1 °F 39.2 °F 30.0 °F 62% 30.32 in - Variable 4.6 mph - N/A   Clear
1:53 AM 41.0 °F 39.0 °F 30.0 °F 65% 30.31 in - East 3.5 mph - N/A   Clear
2:53 AM 39.9 °F - 30.9 °F 70% 30.31 in - Calm Calm - N/A   Clear
3:53 AM 41.0 °F 39.0 °F 30.9 °F 67% 30.31 in - East 3.5 mph - N/A   Overcast
4:53 AM 41.0 °F 39.0 °F 32.0 °F 70% 30.30 in - East 3.5 mph - N/A   Overcast
5:48 AM 41.0 °F 39.0 °F 32.0 °F 70% 30.32 in - Variable 3.5 mph - N/A   Mostly Cloudy
5:53 AM 41.0 °F - 32.0 °F 70% 30.32 in - Calm Calm - N/A   Mostly Cloudy
6:45 AM 41.0 °F - 32.0 °F 70% 30.33 in - Calm Calm - N/A   Overcast
6:53 AM 41.0 °F 39.0 °F 32.0 °F 70% 30.33 in - ENE 3.5 mph - N/A   Overcast
7:11 AM 41.0 °F 37.1 °F 32.0 °F 70% 30.33 in - Variable 5.8 mph - N/A   Overcast
7:36 AM 41.0 °F 38.0 °F 32.0 °F 70% 30.34 in 10.0 mi SE 4.6 mph - N/A   Scattered Clouds
7:53 AM 41.0 °F 38.0 °F 32.0 °F 70% 30.35 in 10.0 mi Variable 4.6 mph - N/A   Scattered Clouds
8:35 AM 42.8 °F 40.1 °F 33.8 °F 70% 30.38 in 10.0 mi East 4.6 mph - N/A   Mostly Cloudy
8:53 AM 43.0 °F 38.8 °F 33.1 °F 68% 30.38 in 10.0 mi East 6.9 mph - N/A   Scattered Clouds
9:53 AM 45.0 °F 39.7 °F 33.1 °F 63% 30.39 in 10.0 mi East 10.4 mph - N/A   Partly Cloudy
10:24 AM 46.4 °F 42.9 °F 33.8 °F 62% 30.40 in 10.0 mi Variable 6.9 mph - N/A   Mostly Cloudy
10:53 AM 48.0 °F - 34.0 °F 58% 30.39 in 10.0 mi ESE 9.2 mph 16.1 mph N/A   Mostly Cloudy
11:09 AM 48.2 °F - 33.8 °F 58% 30.39 in 10.0 mi East 8.1 mph 17.3 mph N/A   Mostly Cloudy
11:16 AM 48.2 °F - 35.6 °F 62% 30.39 in 10.0 mi Variable 5.8 mph - N/A   Mostly Cloudy
11:53 AM 50.0 °F - 35.1 °F 57% 30.38 in 10.0 mi East 9.2 mph - N/A   Overcast
12:53 PM 51.1 °F - 36.0 °F 56% 30.34 in 10.0 mi SE 8.1 mph 19.6 mph N/A   Overcast
1:53 PM 51.1 °F - 37.0 °F 59% 30.33 in 10.0 mi East 8.1 mph - N/A   Overcast
2:53 PM 52.0 °F - 37.9 °F 59% 30.31 in 10.0 mi East 8.1 mph - N/A   Overcast
3:53 PM 53.1 °F - 39.9 °F 61% 30.30 in 10.0 mi East 6.9 mph - N/A   Overcast
4:53 PM 53.1 °F - 39.9 °F 61% 30.32 in 10.0 mi Calm Calm - N/A   Overcast
5:53 PM 52.0 °F - 39.9 °F 63% 30.32 in 10.0 mi Calm Calm - N/A   Overcast
6:53 PM 51.1 °F - 39.9 °F 66% 30.32 in 10.0 mi East 3.5 mph - N/A   Overcast
7:53 PM 51.1 °F - 41.0 °F 68% 30.32 in 10.0 mi East 5.8 mph - N/A   Overcast
8:53 PM 50.0 °F - 43.0 °F 77% 30.33 in 10.0 mi Variable 5.8 mph - N/A   Overcast
9:53 PM 50.0 °F - 43.0 °F 77% 30.34 in 9.0 mi East 5.8 mph - N/A   Overcast
10:36 PM 48.2 °F - 42.8 °F 82% 30.34 in 10.0 mi Variable 4.6 mph - N/A   Partly Cloudy
10:53 PM 48.0 °F - 42.1 °F 80% 30.33 in 10.0 mi ESE 3.5 mph - N/A   Clear
11:53 PM 46.9 °F - 41.0 °F 80% 30.34 in 10.0 mi Calm Calm - N/A   Clear